Showing default

UFO 4 (USA 108), 23467

Orbit data source: Space-Track

UFO 4 (USA 108), 23467 is a payload satellite owned by HCI (US) in GEO that was launched on Sun, 29 Jan 1995 UTC via an ATLAS II launch vehicle from the Air Force Eastern Test Range (AFETR). Payload-class satellites include a variety of spacecraft equipped with specific instruments for various scientific and technological missions. These include communications satellites like Starlink; space stations such as the ISS; scientific satellites like the Hubble; Earth observation satellites from companies like Planet Labs, Umbra, and HawkEye 360; GPS; miniature CubeSats for education and research; and military/defense satellites.

Not visible in the next 10 days
Identifier
23467, 1995-003A
Orbit
GEO
Country
Flag of USUS
Related business
Manufacturer
Hughes
Mission
Operational Defense Communications
Bus & Motor
HS-601, R-4D-11-300
Mass
3,023 kg wet, 1,350 kg dry
Launch date (UTC)
1995-01-29 (31 years ago)
Launch vehicle
ATLAS II
Launch site
Air Force Eastern Test Range (AFETR)
Object type
Payload
Rocket body
Debris
Shape & HBR
Hex Poly + 2 Pan, 9.2 m
Radar Cross Section
58.810 m², Large (>1 m²)

Expand to show TLE details & history
Last TLE update: 7 hours ago

TLE from 7 hours ago
0 UFO 4 (USA 108)
1 23467U 95003A   25293.51449120 -.00000018  00000-0  00000-0 0  9996
2 23467   9.7069  13.9953 0004479 192.8602 179.9419  1.00270632112552
Epoch: 2025-10-20T12:20Z
TLE epoch observation values (Epoch: 2025-10-20T12:20:52.039Z)
Latitude
2.14814°
Longitude
172.16492°
Altitude
35,805.18 km
Speed
3.073 km/s
True Right ascension
01h 46m 23s
True Declination
2° 08' 45"
Sunlit
Object was in partial shadow at epoch
Visualization orbit readout
Latitude
Unknown
Longitude
Unknown
Altitude
Unknown
Speed
Unknown
Apparent Right ascension
Unknown
Apparent Declination
Unknown
Sunlit
N/A
Visualization observer readout
Local Sidereal Time
14:48:23
Azimuth
Unknown
Elevation
Unknown
Doppler factor
Unknown
Orbital elements
Apogee altitude
35,806.83 km
Perigee altitude
35,769.058 km
Semi-major axis
42,166.081 km
Eccentricity
0.00045
Inclination
9.7069°
RAAN
13.9953°
Arg. of periapsis
192.8602°
True anomaly
179.94195°
Mean anomaly
179.9419°
Eccentric anomaly
179.94193°
Mean motion
0.25067 °/min
Orbital period
1,436.16 mins
BSTAR
0
Loading maneuver chart data...
Computing Atmospheric mass density...
Loading historical data...
Loading historical data...
Loading historical data...
Loading historical data...
Loading historical data...
Loading historical data...
Loading historical data...
Other satellites on launch #3 in the year 1995 (1995-01-29 UTC)

Documentation

Showing up to 5 results
|